Location: Asheville, NC
(35.6000°N, 82.5500°W)
Time: 14:20:54

N. Korean satellite - Pass Details

Date: 15 December 2017
Orbit: 460 x 512 km, 97.2° (Epoch: 17 March)

Event Time Altitude Azimuth Distance (km) Brightness Sun altitude
Rises 19:00:17 0° 186° (S) 2,574 10.5 -20.0°
Reaches altitude 10° 19:02:28 10° 196° (SSW) 1,704 9.7 -20.5°
Maximum altitude 19:05:51 34° 263° (W) 852 8.4 -21.1°
Drops below altitude 10° 19:09:19 10° 329° (NNW) 1,753 9.6 -21.8°
Sets 19:11:32 0° 339° (NNW) 2,629 10.4 -22.3°
